7 * 24
多渠道服务支持
IRIDIUM 173 是 IRIDIUM 卫星通信系统的一部分,属于第二代 IRIDIUM NEXT 卫星星座。该卫星由 SpaceX 于 2017 年发射,提供全球范围的语音和数据通信服务。它运行在低地球轨道,支持多种应用,包括航空、航海和应急通信。IRIDIUM 173 采用先进设计,具备更强的信号覆盖和抗干扰能力,为用户在偏远地区提供可靠连接。
美国
(US)
| 数据来源 | 国际轨道数据 |
| 星历时间: | 2025-12-13T02:21:55+0800 15小时前 查看轨道信息 |
| 半长轴: | 7155.805km |
| 偏心率: | 0.00019 |
| 轨道倾角: | 86.397° |
| 近地点辐角 | 102.212° |
| 升交点赤经 | 71.499° |
| 平近点角 | 257.928° |
| 近地点: | 776.31km |
| 远地点: | 779.03km |
| 周期: | 100.403分钟 |
| 每日圈数: | 14.342175 |